Weather History for Riverside March, CA

Change the Weather History Date:

Thursday, October 17, 2013

  Actual Average Record
Temperature  
Mean Temperature 62 °F -  
Max Temperature 82 °F 79 °F 97 °F (2012)
Min Temperature 42 °F 50 °F 42 °F (2013)
Degree Days  
Heating Degree Days 4    
Growing Degree Days 12 (Base 50)    
Moisture  
Dew Point 32 °F    
Average Humidity 39    
Maximum Humidity 70    
Minimum Humidity 11    
Precipitation  
Precipitation 0.00 in - - ()
Sea Level Pressure  
Sea Level Pressure 29.99 in    
Wind  
Wind Speed 2 mph (NW)    
Max Wind Speed 13 mph    
Max Gust Speed -    
Visibility 10 miles    
Events      
Averages and records for this station are not official NWS values.
T = Trace of Precipitation, MM = Missing Value Source: NWS Daily Summary

Daily Weather History Graph

Daily Weather History Graph

Search for Another Location

Airport:

Trip Planner

Search our weather history database for the weather conditions in past years. The results will help you decide how hot, cold, wet, or windy it might be!

Date:

Astronomy

Oct. 17, 2013 Rise Set
Actual Time 6:55 AM PDT 6:12 PM PDT
Civil Twilight 6:30 AM PDT 6:37 PM PDT
Nautical Twilight 6:01 AM PDT 7:06 PM PDT
Astronomical Twilight 5:32 AM PDT 7:35 PM PDT
Moon 5:27 PM PDT (10/17) 5:35 AM PDT (10/17)
Length of Visible Light 12h 06m
Length of Day
11h 16m
Waxing Gibbous, 98% of the Moon is Illuminated
Oct 17
Waxing Gibbous
Oct 18
Full
Oct 26
Last Quarter
Nov 3
New
Nov 9
First Quarter

Hourly Weather History & Observations

Time (PDT) Temp. Dew Point Humidity Pressure Visibility Wind Dir Wind Speed Gust Speed Precip Events Conditions
12:58 AM 49.6 °F 31.8 °F 50% 30.03 in 10.0 mi Calm Calm - N/A   Clear
1:58 AM 48.9 °F 31.6 °F 51% 30.03 in 10.0 mi Calm Calm - N/A   Clear
2:58 AM 45.9 °F 33.3 °F 61% 30.02 in 10.0 mi Calm Calm - N/A   Clear
3:58 AM 46.0 °F 32.5 °F 59% 30.02 in 10.0 mi Calm Calm - N/A   Clear
4:58 AM 44.8 °F 33.8 °F 65% 30.02 in 10.0 mi Calm Calm - N/A   Clear
5:58 AM 43.5 °F 34.0 °F 69% 30.04 in 10.0 mi Calm Calm - N/A   Clear
6:58 AM 42.6 °F 33.4 °F 70% 30.04 in 10.0 mi Calm Calm - N/A   Clear
7:58 AM 50.2 °F 34.7 °F 55% 30.06 in 10.0 mi Calm Calm - N/A   Clear
8:58 AM 58.5 °F 32.4 °F 37% 30.05 in 10.0 mi Calm Calm - N/A   Clear
9:58 AM 65.7 °F 33.8 °F 31% 30.04 in 10.0 mi East 1.2 mph - N/A   Clear
10:58 AM 72.7 °F 28.9 °F 20% 30.03 in 10.0 mi Variable 3.5 mph - N/A   Clear
11:58 AM 76.6 °F 26.2 °F 16% 30.01 in 10.0 mi Variable 3.5 mph - N/A   Clear
12:58 PM 80.6 °F 23.9 °F 12% 29.98 in 10.0 mi Variable 3.5 mph - N/A   Clear
1:58 PM 81.7 °F 23.2 °F 12% 29.95 in 10.0 mi WNW 8.1 mph - N/A   Clear
2:58 PM 81.1 °F 22.3 °F 11% 29.93 in 10.0 mi West 9.2 mph - N/A   Clear
3:58 PM 81.3 °F 24.6 °F 12% 29.92 in 10.0 mi WNW 11.5 mph - N/A   Clear
4:58 PM 78.8 °F 33.6 °F 19% 29.92 in 10.0 mi WNW 12.7 mph - N/A   Clear
5:58 PM 73.0 °F 36.1 °F 26% 29.93 in 10.0 mi WNW 11.5 mph - N/A   Clear
6:58 PM 68.0 °F 33.1 °F 27% 29.95 in 10.0 mi WNW 10.4 mph - N/A   Clear
7:58 PM 64.8 °F 34.0 °F 32% 29.96 in 10.0 mi NNW 6.9 mph - N/A   Clear
8:58 PM 58.3 °F 36.3 °F 44% 29.97 in 10.0 mi North 2.3 mph - N/A   Clear
9:58 PM 57.6 °F 37.2 °F 47% 29.97 in 10.0 mi Calm Calm - N/A   Clear
10:58 PM 53.4 °F 37.8 °F 55% 29.98 in 10.0 mi West 1.2 mph - N/A   Clear
11:58 PM 52.0 °F 38.7 °F 60% 29.97 in 10.0 mi NNW 3.5 mph - N/A   Clear